Time,TemperatureF,DewpointF,PressureIn,WindDirection,WindDirectionDegrees,WindSpeedMPH,WindSpeedGustMPH,Humidity,HourlyPrecipIn,Conditions,Clouds,dailyrainin,SoftwareType,DateUTC
2013-05-23 00:03:00,57.0,56.0,30.02,SSW,211,0.0,1.0,95,0.00,,,1.56,,2013-05-23 04:03:00,
2013-05-23 00:10:00,57.0,56.0,30.01,South,170,0.0,1.0,95,0.00,,,1.21,,2013-05-23 04:10:00,
2013-05-23 00:12:00,57.0,56.0,30.02,SSW,211,0.0,1.0,95,0.00,,,1.56,,2013-05-23 04:12:00,
2013-05-23 00:22:00,57.0,56.0,30.02,South,174,0.0,1.0,95,0.00,,,1.56,,2013-05-23 04:22:00,
2013-05-23 00:33:00,57.0,56.0,30.01,South,170,0.0,1.0,95,0.00,,,1.21,,2013-05-23 04:33:00,
2013-05-23 00:43:00,57.0,56.0,30.01,South,170,0.0,1.0,95,0.00,,,1.21,,2013-05-23 04:43:00,
2013-05-23 00:52:00,57.0,56.0,30.01,South,170,0.0,1.0,95,0.00,,,1.21,,2013-05-23 04:52:00,
2013-05-23 01:02:00,57.0,56.0,30.01,South,170,0.0,1.0,95,0.00,,,1.21,,2013-05-23 05:02:00,
2013-05-23 01:43:00,58.0,57.0,30.02,West,269,0.0,3.0,95,0.00,,,0.98,,2013-05-23 05:43:00,
2013-05-23 01:52:00,58.0,57.0,30.02,West,269,0.0,3.0,95,0.00,,,0.98,,2013-05-23 05:52:00,
2013-05-23 02:02:00,58.0,57.0,30.01,SE,132,0.0,2.0,95,0.00,,,0.98,,2013-05-23 06:02:00,
2013-05-23 02:12:00,58.0,57.0,30.01,SE,132,0.0,2.0,95,0.00,,,0.98,,2013-05-23 06:12:00,
2013-05-23 02:22:00,58.0,57.0,30.00,SSE,163,0.0,1.0,95,0.00,,,0.98,,2013-05-23 06:22:00,
2013-05-23 02:32:00,58.0,57.0,30.00,West,264,0.0,2.0,95,0.00,,,0.76,,2013-05-23 06:32:00,
2013-05-23 02:42:00,58.0,57.0,30.00,West,264,0.0,2.0,95,0.00,,,0.76,,2013-05-23 06:42:00,
2013-05-23 02:52:00,58.0,57.0,29.98,NW,315,0.0,2.0,96,0.00,,,0.76,,2013-05-23 06:52:00,
2013-05-23 03:02:00,58.0,57.0,29.98,NW,309,1.0,3.0,95,0.00,,,0.76,,2013-05-23 07:02:00,
2013-05-23 03:11:00,58.0,57.0,29.98,NW,309,1.0,3.0,95,0.00,,,0.76,,2013-05-23 07:11:00,
2013-05-23 03:22:00,58.0,57.0,29.97,SSW,193,0.0,4.0,95,0.00,,,0.76,,2013-05-23 07:22:00,
2013-05-23 03:32:00,58.0,57.0,29.97,NE,46,0.0,4.0,95,0.00,,,0.28,,2013-05-23 07:32:00,
2013-05-23 03:42:00,58.0,57.0,29.97,NE,46,0.0,4.0,95,0.00,,,0.28,,2013-05-23 07:42:00,
2013-05-23 03:59:00,58.0,57.0,29.97,ENE,77,1.0,3.0,96,0.00,,,0.28,,2013-05-23 07:59:00,
2013-05-23 04:12:00,58.0,57.0,29.97,West,276,0.0,2.0,96,0.00,,,0.28,,2013-05-23 08:12:00,
2013-05-23 04:22:00,58.0,57.0,29.96,SE,134,0.0,3.0,96,0.00,,,0.28,,2013-05-23 08:22:00,
2013-05-23 04:32:00,58.0,57.0,29.97,WNW,301,0.0,1.0,96,0.00,,,0.12,,2013-05-23 08:32:00,
2013-05-23 04:42:00,58.0,57.0,29.97,WNW,301,0.0,1.0,96,0.00,,,0.12,,2013-05-23 08:42:00,
2013-05-23 04:51:00,58.0,57.0,29.97,West,266,0.0,0.0,96,0.00,,,0.12,,2013-05-23 08:51:00,
2013-05-23 05:02:00,58.0,57.0,29.98,SE,134,0.0,2.0,96,0.00,,,0.12,,2013-05-23 09:02:00,
2013-05-23 05:11:00,58.0,57.0,29.98,SE,134,0.0,2.0,96,0.00,,,0.12,,2013-05-23 09:11:00,
2013-05-23 05:22:00,58.0,57.0,29.98,SSE,150,0.0,2.0,96,0.00,,,0.12,,2013-05-23 09:22:00,
2013-05-23 05:33:00,58.0,57.0,29.99,SSE,150,0.0,3.0,96,0.00,,,0.11,,2013-05-23 09:33:00,
2013-05-23 05:42:00,58.0,57.0,29.99,SSE,150,0.0,3.0,96,0.00,,,0.11,,2013-05-23 09:42:00,
2013-05-23 05:53:00,59.0,58.0,29.99,NE,39,0.0,2.0,96,0.00,,,0.11,,2013-05-23 09:53:00,
2013-05-23 06:03:00,59.0,58.0,29.99,NE,44,0.0,3.0,96,0.00,,,0.11,,2013-05-23 10:03:00,
2013-05-23 06:13:00,59.0,58.0,29.99,NE,44,0.0,3.0,96,0.00,,,0.11,,2013-05-23 10:13:00,
2013-05-23 06:22:00,59.0,58.0,30.00,NW,323,0.0,1.0,96,0.00,,,0.11,,2013-05-23 10:22:00,
2013-05-23 06:32:00,60.0,59.0,30.00,SW,214,0.0,1.0,96,0.00,,,0.11,,2013-05-23 10:32:00,
2013-05-23 06:42:00,60.0,59.0,30.00,SW,214,0.0,1.0,96,0.00,,,0.11,,2013-05-23 10:42:00,
2013-05-23 06:52:00,60.0,59.0,30.01,SW,215,0.0,1.0,96,0.00,,,0.11,,2013-05-23 10:52:00,
2013-05-23 07:02:00,60.0,59.0,30.00,SW,215,0.0,1.0,96,0.00,,,0.11,,2013-05-23 11:02:00,
2013-05-23 07:11:00,60.0,59.0,30.00,SW,215,0.0,1.0,96,0.00,,,0.11,,2013-05-23 11:11:00,
2013-05-23 07:22:00,61.0,60.0,30.00,SW,214,0.0,0.0,96,0.00,,,0.11,,2013-05-23 11:22:00,
2013-05-23 07:32:00,61.0,60.0,30.01,SW,214,0.0,0.0,95,0.00,,,0.10,,2013-05-23 11:32:00,
2013-05-23 07:42:00,61.0,60.0,30.01,SW,214,0.0,0.0,95,0.00,,,0.10,,2013-05-23 11:42:00,
2013-05-23 07:52:00,62.0,61.0,30.01,SW,215,0.0,1.0,95,0.00,,,0.10,,2013-05-23 11:52:00,
2013-05-23 08:01:00,62.0,61.0,30.01,SW,215,0.0,1.0,95,0.00,,,0.10,,2013-05-23 12:01:00,
2013-05-23 08:12:00,62.0,61.0,30.01,SW,215,0.0,1.0,95,0.00,,,0.10,,2013-05-23 12:12:00,
2013-05-23 08:21:00,62.0,61.0,30.00,SSW,213,0.0,1.0,96,0.00,,,0.10,,2013-05-23 12:21:00,
2013-05-23 08:32:00,64.0,63.0,29.99,NE,53,1.0,2.0,96,0.00,,,0.10,,2013-05-23 12:32:00,
2013-05-23 08:42:00,64.0,63.0,29.99,NE,53,1.0,2.0,96,0.00,,,0.10,,2013-05-23 12:42:00,
2013-05-23 08:52:00,66.0,64.0,29.99,NW,311,0.0,2.0,94,0.00,,,0.10,,2013-05-23 12:52:00,
2013-05-23 09:02:00,66.0,64.0,29.99,NW,312,0.0,1.0,93,0.00,,,0.10,,2013-05-23 13:02:00,
2013-05-23 09:11:00,66.0,64.0,29.99,NW,312,0.0,1.0,93,0.00,,,0.10,,2013-05-23 13:11:00,
2013-05-23 09:22:00,67.0,65.0,29.98,SSE,158,0.0,2.0,93,0.00,,,0.10,,2013-05-23 13:22:00,
2013-05-23 09:32:00,67.0,64.0,29.98,West,259,0.0,3.0,91,0.00,,,0.10,,2013-05-23 13:32:00,
2013-05-23 09:42:00,67.0,64.0,29.98,West,259,0.0,3.0,91,0.00,,,0.10,,2013-05-23 13:42:00,
2013-05-23 09:52:00,68.0,65.0,29.99,West,273,0.0,4.0,90,0.00,,,0.10,,2013-05-23 13:52:00,
2013-05-23 10:02:00,68.0,65.0,29.99,WSW,248,0.0,2.0,90,0.00,,,0.10,,2013-05-23 14:02:00,
2013-05-23 10:11:00,68.0,65.0,29.99,WSW,248,0.0,2.0,90,0.00,,,0.10,,2013-05-23 14:11:00,
2013-05-23 10:21:00,68.0,65.0,29.99,North,359,0.0,1.0,90,0.00,,,0.10,,2013-05-23 14:21:00,
2013-05-23 10:32:00,68.0,65.0,29.98,West,281,0.0,1.0,90,0.00,,,0.10,,2013-05-23 14:32:00,
2013-05-23 10:42:00,68.0,65.0,29.98,West,281,0.0,1.0,90,0.00,,,0.10,,2013-05-23 14:42:00,
2013-05-23 10:52:00,69.0,65.0,29.98,West,270,0.0,5.0,88,0.00,,,0.10,,2013-05-23 14:52:00,
2013-05-23 11:01:00,69.0,65.0,29.98,WSW,252,0.0,2.0,88,0.00,,,0.10,,2013-05-23 15:01:00,
2013-05-23 11:11:00,69.0,65.0,29.98,WSW,252,0.0,2.0,88,0.00,,,0.10,,2013-05-23 15:11:00,
2013-05-23 11:22:00,70.0,66.0,29.98,SW,214,0.0,3.0,88,0.00,,,0.10,,2013-05-23 15:22:00,
2013-05-23 11:33:00,70.0,66.0,29.98,WSW,243,1.0,3.0,86,0.00,,,0.10,,2013-05-23 15:33:00,
2013-05-23 11:42:00,70.0,66.0,29.98,WSW,243,1.0,3.0,86,0.00,,,0.10,,2013-05-23 15:42:00,
2013-05-23 11:53:00,73.0,67.0,29.97,West,274,1.0,4.0,82,0.00,,,0.10,,2013-05-23 15:53:00,
2013-05-23 12:03:00,73.0,66.0,29.97,WSW,255,2.0,5.0,80,0.00,,,0.10,,2013-05-23 16:03:00,
2013-05-23 12:12:00,73.0,66.0,29.97,WSW,255,2.0,5.0,80,0.00,,,0.10,,2013-05-23 16:12:00,
2013-05-23 12:23:00,73.0,67.0,29.97,West,272,1.0,5.0,82,0.00,,,0.10,,2013-05-23 16:23:00,
2013-05-23 12:34:00,72.0,67.0,29.97,West,280,1.0,3.0,83,0.00,,,0.10,,2013-05-23 16:34:00,
2013-05-23 12:42:00,72.0,67.0,29.97,West,280,1.0,3.0,83,0.00,,,0.10,,2013-05-23 16:42:00,
2013-05-23 12:52:00,72.0,67.0,29.98,West,259,1.0,6.0,84,0.00,,,0.10,,2013-05-23 16:52:00,
2013-05-23 13:03:00,71.0,66.0,29.97,West,266,2.0,5.0,85,0.00,,,0.10,,2013-05-23 17:03:00,
2013-05-23 13:11:00,71.0,66.0,29.97,West,266,2.0,5.0,85,0.00,,,0.10,,2013-05-23 17:11:00,
2013-05-23 13:23:00,72.0,67.0,29.96,WSW,247,0.0,3.0,85,0.00,,,0.10,,2013-05-23 17:23:00,
2013-05-23 13:33:00,72.0,67.0,29.96,East,82,0.0,3.0,84,0.00,,,0.10,,2013-05-23 17:33:00,
2013-05-23 13:43:00,72.0,67.0,29.96,East,82,0.0,3.0,84,0.00,,,0.10,,2013-05-23 17:43:00,
2013-05-23 13:52:00,73.0,67.0,29.94,West,267,0.0,3.0,82,0.00,,,0.10,,2013-05-23 17:52:00,
2013-05-23 14:01:00,73.0,67.0,29.95,SW,236,1.0,6.0,82,0.00,,,0.10,,2013-05-23 18:01:00,
2013-05-23 14:11:00,73.0,67.0,29.95,SW,236,1.0,6.0,82,0.00,,,0.10,,2013-05-23 18:11:00,
2013-05-23 14:22:00,73.0,67.0,29.95,SW,215,1.0,3.0,82,0.00,,,0.10,,2013-05-23 18:22:00,
2013-05-23 14:32:00,72.0,66.0,29.95,WSW,248,1.0,8.0,82,0.00,,,0.10,,2013-05-23 18:32:00,
2013-05-23 14:42:00,72.0,66.0,29.95,WSW,248,1.0,8.0,82,0.00,,,0.10,,2013-05-23 18:42:00,
2013-05-23 14:52:00,71.0,66.0,29.95,West,277,0.0,2.0,84,0.00,,,0.10,,2013-05-23 18:52:00,
2013-05-23 15:02:00,71.0,66.0,29.95,SW,219,0.0,2.0,85,0.00,,,0.10,,2013-05-23 19:02:00,
2013-05-23 15:11:00,71.0,66.0,29.95,SW,219,0.0,2.0,85,0.00,,,0.10,,2013-05-23 19:11:00,
2013-05-23 15:21:00,69.0,66.0,29.96,West,267,0.0,3.0,90,0.05,,,0.15,,2013-05-23 19:21:00,
2013-05-23 15:32:00,68.0,66.0,29.96,ESE,110,0.0,2.0,92,0.15,,,0.25,,2013-05-23 19:32:00,
2013-05-23 15:42:00,68.0,66.0,29.96,ESE,110,0.0,2.0,92,0.15,,,0.25,,2013-05-23 19:42:00,
2013-05-23 15:52:00,68.0,66.0,29.98,WSW,244,0.0,3.0,94,0.22,,,0.32,,2013-05-23 19:52:00,
2013-05-23 16:02:00,67.0,65.0,29.96,NNE,14,0.0,8.0,94,0.28,,,0.38,,2013-05-23 20:02:00,
2013-05-23 16:11:00,67.0,65.0,29.96,NNE,14,0.0,8.0,94,0.28,,,0.38,,2013-05-23 20:11:00,
2013-05-23 16:21:00,67.0,65.0,29.96,NW,315,0.0,2.0,94,0.26,,,0.42,,2013-05-23 20:21:00,
2013-05-23 16:32:00,67.0,65.0,29.94,SSE,163,0.0,1.0,94,0.19,,,0.44,,2013-05-23 20:32:00,
2013-05-23 16:42:00,67.0,65.0,29.94,SSE,163,0.0,1.0,94,0.19,,,0.44,,2013-05-23 20:42:00,
2013-05-23 16:52:00,67.0,65.0,29.94,NW,326,0.0,1.0,94,0.12,,,0.44,,2013-05-23 20:52:00,
2013-05-23 17:01:00,67.0,66.0,29.94,ESE,117,0.0,3.0,95,0.07,,,0.45,,2013-05-23 21:01:00,
2013-05-23 17:11:00,67.0,66.0,29.94,ESE,117,0.0,3.0,95,0.07,,,0.45,,2013-05-23 21:11:00,
2013-05-23 17:22:00,67.0,65.0,29.93,SW,221,1.0,5.0,94,0.03,,,0.45,,2013-05-23 21:22:00,
2013-05-23 17:32:00,67.0,65.0,29.93,WNW,291,0.0,2.0,93,0.01,,,0.45,,2013-05-23 21:32:00,
2013-05-23 17:43:00,67.0,65.0,29.93,WNW,291,0.0,2.0,93,0.01,,,0.45,,2013-05-23 21:43:00,
2013-05-23 17:53:00,67.0,65.0,29.93,North,359,0.0,1.0,93,0.01,,,0.45,,2013-05-23 21:53:00,
2013-05-23 18:03:00,67.0,65.0,29.93,WNW,287,0.0,4.0,94,0.00,,,0.45,,2013-05-23 22:03:00,
2013-05-23 18:12:00,67.0,65.0,29.93,WNW,287,0.0,4.0,94,0.00,,,0.45,,2013-05-23 22:12:00,
2013-05-23 18:22:00,67.0,65.0,29.93,SW,231,0.0,2.0,93,0.00,,,0.45,,2013-05-23 22:22:00,
2013-05-23 18:33:00,67.0,65.0,29.93,West,262,0.0,3.0,93,0.00,,,0.36,,2013-05-23 22:33:00,
2013-05-23 18:42:00,67.0,65.0,29.93,West,262,0.0,3.0,93,0.00,,,0.36,,2013-05-23 22:42:00,
2013-05-23 18:52:00,67.0,65.0,29.94,WSW,243,0.0,3.0,93,0.01,,,0.37,,2013-05-23 22:52:00,
2013-05-23 19:02:00,66.0,64.0,29.94,NW,323,0.0,2.0,94,0.03,,,0.39,,2013-05-23 23:02:00,
2013-05-23 19:11:00,66.0,64.0,29.94,NW,323,0.0,2.0,94,0.03,,,0.39,,2013-05-23 23:11:00,
2013-05-23 19:22:00,66.0,64.0,29.94,SE,142,1.0,4.0,94,0.06,,,0.42,,2013-05-23 23:22:00,
2013-05-23 19:32:00,66.0,65.0,29.94,West,259,0.0,2.0,95,0.12,,,0.47,,2013-05-23 23:32:00,
2013-05-23 19:42:00,66.0,65.0,29.94,West,259,0.0,2.0,95,0.12,,,0.47,,2013-05-23 23:42:00,
2013-05-23 19:52:00,65.0,64.0,29.95,SE,141,0.0,2.0,95,0.17,,,0.53,,2013-05-23 23:52:00,
2013-05-23 20:01:00,65.0,64.0,29.94,NNW,343,0.0,3.0,95,0.18,,,0.56,,2013-05-24 00:01:00,
2013-05-23 20:12:00,65.0,64.0,29.94,NNW,343,0.0,3.0,95,0.18,,,0.56,,2013-05-24 00:12:00,
2013-05-23 20:21:00,65.0,64.0,29.93,West,278,0.0,3.0,95,0.19,,,0.60,,2013-05-24 00:21:00,
2013-05-23 20:32:00,65.0,64.0,29.93,ENE,75,0.0,2.0,95,0.16,,,0.63,,2013-05-24 00:32:00,
2013-05-23 20:42:00,65.0,64.0,29.93,ENE,75,0.0,2.0,95,0.16,,,0.63,,2013-05-24 00:42:00,
2013-05-23 20:52:00,64.0,63.0,29.93,SW,224,0.0,2.0,95,0.10,,,0.63,,2013-05-24 00:52:00,
2013-05-23 21:01:00,64.0,63.0,29.92,NW,313,0.0,2.0,95,0.07,,,0.63,,2013-05-24 01:01:00,
2013-05-23 21:12:00,64.0,63.0,29.92,NW,313,0.0,2.0,95,0.07,,,0.63,,2013-05-24 01:12:00,
2013-05-23 21:22:00,64.0,63.0,29.92,WSW,240,0.0,1.0,95,0.03,,,0.63,,2013-05-24 01:22:00,
2013-05-23 21:32:00,64.0,63.0,29.92,NW,324,0.0,2.0,95,0.00,,,0.63,,2013-05-24 01:32:00,
2013-05-23 21:42:00,64.0,63.0,29.92,NW,324,0.0,2.0,95,0.00,,,0.63,,2013-05-24 01:42:00,
2013-05-23 21:52:00,64.0,63.0,29.92,SSW,210,1.0,4.0,95,0.01,,,0.64,,2013-05-24 01:52:00,
2013-05-23 22:02:00,64.0,63.0,29.92,SE,124,0.0,2.0,95,0.01,,,0.64,,2013-05-24 02:02:00,
2013-05-23 22:12:00,64.0,63.0,29.92,SE,124,0.0,2.0,95,0.01,,,0.64,,2013-05-24 02:12:00,
2013-05-23 22:22:00,64.0,63.0,29.92,ENE,75,0.0,4.0,95,0.01,,,0.64,,2013-05-24 02:22:00,
2013-05-23 22:32:00,65.0,64.0,29.91,South,181,0.0,3.0,95,0.01,,,0.64,,2013-05-24 02:32:00,
2013-05-23 22:42:00,65.0,64.0,29.91,South,181,0.0,3.0,95,0.01,,,0.64,,2013-05-24 02:42:00,
2013-05-23 22:52:00,65.0,64.0,29.91,South,181,0.0,3.0,95,0.01,,,0.64,,2013-05-24 02:52:00,
2013-05-23 23:02:00,64.0,63.0,29.90,SE,134,0.0,1.0,95,0.01,,,0.65,,2013-05-24 03:02:00,
2013-05-23 23:11:00,64.0,63.0,29.90,SE,134,0.0,1.0,95,0.01,,,0.65,,2013-05-24 03:11:00,
2013-05-23 23:22:00,64.0,63.0,29.89,ESE,113,0.0,3.0,95,0.02,,,0.66,,2013-05-24 03:22:00,
2013-05-23 23:33:00,64.0,63.0,29.89,WSW,251,0.0,3.0,95,0.02,,,0.66,,2013-05-24 03:33:00,
2013-05-23 23:42:00,64.0,63.0,29.89,WSW,251,0.0,3.0,95,0.02,,,0.66,,2013-05-24 03:42:00,
2013-05-23 23:53:00,64.0,63.0,29.89,NW,326,0.0,1.0,95,0.01,,,0.66,,2013-05-24 03:53:00,